Time,TemperatureF,DewpointF,PressureIn,WindDirection,WindDirectionDegrees,WindSpeedMPH,WindSpeedGustMPH,Humidity,HourlyPrecipIn,Conditions,Clouds,dailyrainin,SolarRadiationWatts/m^2,SoftwareType,DateUTC
2013-08-02 00:00:00,64.5,63.6,29.89,ESE,115,0.0,0.0,97,0.01,,---,0.30,0.00,VWS V14.01,2013-08-02 04:00:00,
2013-08-02 00:01:00,64.6,64.0,29.88,ESE,115,0.0,0.0,98,0.00,,---,0.00,0.00,VWS V14.01,2013-08-02 04:01:00,
2013-08-02 00:02:00,64.6,64.0,29.88,ESE,115,0.0,0.0,98,0.00,,---,0.00,0.00,VWS V14.01,2013-08-02 04:02:00,
2013-08-02 00:07:00,64.7,64.1,29.88,ESE,115,0.0,0.0,98,0.00,,---,0.00,0.00,VWS V14.01,2013-08-02 04:07:00,
2013-08-02 00:12:00,64.7,64.1,29.87,ESE,115,0.0,0.0,98,0.00,,---,0.00,0.00,VWS V14.01,2013-08-02 04:12:00,
2013-08-02 00:16:00,64.7,64.1,29.87,ESE,115,0.0,0.0,98,0.00,,---,0.00,0.00,VWS V14.01,2013-08-02 04:16:00,
2013-08-02 00:21:00,64.7,64.1,29.87,ESE,115,0.0,0.0,98,0.00,,---,0.00,0.00,VWS V14.01,2013-08-02 04:21:00,
2013-08-02 00:26:00,64.7,64.1,29.87,ESE,115,0.0,0.0,98,0.00,,---,0.00,0.00,VWS V14.01,2013-08-02 04:26:00,
2013-08-02 00:30:00,64.7,64.1,29.88,ESE,115,0.0,0.0,98,0.01,,---,0.30,0.00,VWS V14.01,2013-08-02 04:30:00,
2013-08-02 00:31:00,64.7,64.1,29.87,ESE,115,0.0,0.0,98,0.00,,---,0.00,0.00,VWS V14.01,2013-08-02 04:31:00,
2013-08-02 00:36:00,64.8,64.2,29.87,ESE,115,0.0,0.0,98,0.00,,---,0.00,0.00,VWS V14.01,2013-08-02 04:36:00,
2013-08-02 00:41:00,64.8,64.2,29.86,ESE,115,0.0,0.0,98,0.00,,---,0.00,0.00,VWS V14.01,2013-08-02 04:41:00,
2013-08-02 00:46:00,64.8,64.2,29.86,ESE,115,0.0,0.0,98,0.00,,---,0.00,0.00,VWS V14.01,2013-08-02 04:46:00,
2013-08-02 00:51:00,64.8,64.2,29.86,ESE,115,0.0,0.0,98,0.00,,---,0.00,0.00,VWS V14.01,2013-08-02 04:51:00,
2013-08-02 00:56:00,64.7,64.1,29.86,ESE,115,0.0,0.0,98,0.00,,---,0.00,0.00,VWS V14.01,2013-08-02 04:56:00,
2013-08-02 01:00:00,64.6,64.0,29.88,ESE,115,0.0,0.0,98,0.00,,---,0.30,0.00,VWS V14.01,2013-08-02 05:00:00,
2013-08-02 01:01:00,64.7,64.1,29.86,ESE,115,0.0,0.0,98,0.00,,---,0.00,0.00,VWS V14.01,2013-08-02 05:01:00,
2013-08-02 01:06:00,64.7,64.1,29.86,ESE,115,0.0,0.0,98,0.00,,---,0.00,0.00,VWS V14.01,2013-08-02 05:06:00,
2013-08-02 01:11:00,64.6,64.0,29.85,ESE,115,0.0,0.0,98,0.00,,---,0.00,0.00,VWS V14.01,2013-08-02 05:11:00,
2013-08-02 01:16:00,64.7,64.1,29.85,ESE,115,0.0,0.0,98,0.00,,---,0.00,0.00,VWS V14.01,2013-08-02 05:16:00,
2013-08-02 01:21:00,64.7,64.1,29.85,ESE,115,0.0,0.0,98,0.00,,---,0.00,0.00,VWS V14.01,2013-08-02 05:21:00,
2013-08-02 01:26:00,64.7,64.1,29.85,ESE,115,0.0,0.0,98,0.00,,---,0.00,0.00,VWS V14.01,2013-08-02 05:26:00,
2013-08-02 01:30:00,64.7,64.1,29.87,ESE,115,0.0,0.0,98,0.00,,---,0.00,0.00,VWS V14.01,2013-08-02 05:30:00,
2013-08-02 01:31:00,64.7,64.1,29.85,ESE,115,0.0,0.0,98,0.00,,---,0.00,0.00,VWS V14.01,2013-08-02 05:31:00,
2013-08-02 01:36:00,64.8,64.2,29.85,ESE,115,0.0,0.0,98,0.00,,---,0.00,0.00,VWS V14.01,2013-08-02 05:36:00,
2013-08-02 01:41:00,64.7,64.1,29.84,ESE,115,0.0,0.0,98,0.00,,---,0.00,0.00,VWS V14.01,2013-08-02 05:41:00,
2013-08-02 01:46:00,64.7,64.1,29.84,ESE,115,0.0,0.0,98,0.00,,---,0.00,0.00,VWS V14.01,2013-08-02 05:46:00,
2013-08-02 01:51:00,64.7,64.1,29.83,ESE,115,0.0,0.0,98,0.00,,---,0.00,0.00,VWS V14.01,2013-08-02 05:51:00,
2013-08-02 01:56:00,64.7,64.1,29.84,ESE,115,0.0,0.0,98,0.00,,---,0.00,0.00,VWS V14.01,2013-08-02 05:56:00,
2013-08-02 02:00:00,64.7,64.1,29.86,ESE,115,0.0,0.0,98,0.00,,---,0.00,0.00,VWS V14.01,2013-08-02 06:00:00,
2013-08-02 02:01:00,64.7,64.1,29.84,ESE,115,0.0,0.0,98,0.00,,---,0.00,0.00,VWS V14.01,2013-08-02 06:01:00,
2013-08-02 02:06:00,64.7,64.1,29.85,ESE,115,0.0,0.0,98,0.00,,---,0.00,0.00,VWS V14.01,2013-08-02 06:06:00,
2013-08-02 02:11:00,64.7,64.1,29.84,ESE,115,0.0,0.0,98,0.00,,---,0.00,0.00,VWS V14.01,2013-08-02 06:11:00,
2013-08-02 02:16:00,64.7,64.1,29.84,ESE,115,0.0,0.0,98,0.00,,---,0.00,0.00,VWS V14.01,2013-08-02 06:16:00,
2013-08-02 02:21:00,64.6,64.0,29.84,ESE,115,0.0,0.0,98,0.00,,---,0.00,0.00,VWS V14.01,2013-08-02 06:21:00,
2013-08-02 02:26:00,64.5,63.9,29.84,ESE,115,0.0,0.0,98,0.00,,---,0.00,0.00,VWS V14.01,2013-08-02 06:26:00,
2013-08-02 02:30:00,64.4,63.8,29.84,ESE,115,0.0,0.0,98,0.00,,---,0.00,0.00,VWS V14.01,2013-08-02 06:30:00,
2013-08-02 02:36:00,64.4,63.8,29.83,ESE,115,0.0,0.0,98,0.00,,---,0.00,0.00,VWS V14.01,2013-08-02 06:36:00,
2013-08-02 02:41:00,64.3,63.7,29.84,ESE,115,0.0,0.0,98,0.00,,---,0.00,0.00,VWS V14.01,2013-08-02 06:41:00,
2013-08-02 02:46:00,64.3,63.7,29.84,ESE,115,0.0,0.0,98,0.00,,---,0.00,0.00,VWS V14.01,2013-08-02 06:46:00,
2013-08-02 02:51:00,64.4,63.8,29.84,ESE,115,0.0,0.0,98,0.00,,---,0.00,0.00,VWS V14.01,2013-08-02 06:51:00,
2013-08-02 02:56:00,64.5,63.9,29.84,ESE,115,0.0,0.0,98,0.00,,---,0.00,0.00,VWS V14.01,2013-08-02 06:56:00,
2013-08-02 03:00:00,64.5,63.9,29.84,ESE,115,0.0,0.0,98,0.00,,---,0.00,0.00,VWS V14.01,2013-08-02 07:00:00,
2013-08-02 03:06:00,64.5,63.9,29.84,ESE,115,0.0,0.0,98,0.00,,---,0.00,0.00,VWS V14.01,2013-08-02 07:06:00,
2013-08-02 03:11:00,64.5,63.9,29.85,ESE,115,0.0,1.0,98,0.00,,---,0.00,0.00,VWS V14.01,2013-08-02 07:11:00,
2013-08-02 03:15:00,64.5,63.9,29.84,SW,229,0.0,2.0,98,0.00,,---,0.00,0.00,VWS V14.01,2013-08-02 07:15:00,
2013-08-02 03:20:00,64.5,63.9,29.84,SW,229,0.0,2.0,98,0.00,,---,0.00,0.00,VWS V14.01,2013-08-02 07:20:00,
2013-08-02 03:26:00,64.5,63.9,29.84,SW,229,0.0,2.0,98,0.00,,---,0.00,0.00,VWS V14.01,2013-08-02 07:26:00,
2013-08-02 03:30:00,64.4,63.8,29.83,ESE,115,0.0,0.0,98,0.00,,---,0.00,0.00,VWS V14.01,2013-08-02 07:30:00,
2013-08-02 03:31:00,64.4,63.8,29.84,SW,229,0.0,0.0,98,0.00,,---,0.00,0.00,VWS V14.01,2013-08-02 07:31:00,
2013-08-02 03:36:00,64.4,63.8,29.84,SW,229,0.0,0.0,98,0.00,,---,0.00,0.00,VWS V14.01,2013-08-02 07:36:00,
2013-08-02 03:41:00,64.4,63.8,29.84,SW,229,0.0,0.0,98,0.00,,---,0.00,0.00,VWS V14.01,2013-08-02 07:41:00,
2013-08-02 03:45:00,64.3,63.7,29.84,SW,229,0.0,0.0,98,0.00,,---,0.00,0.00,VWS V14.01,2013-08-02 07:45:00,
2013-08-02 03:50:00,64.3,63.7,29.83,SW,229,0.0,0.0,98,0.00,,---,0.00,0.00,VWS V14.01,2013-08-02 07:50:00,
2013-08-02 03:55:00,64.3,63.7,29.83,SW,229,0.0,0.0,98,0.00,,---,0.00,0.00,VWS V14.01,2013-08-02 07:55:00,
2013-08-02 04:00:00,64.3,63.7,29.84,SW,229,0.0,0.0,98,0.00,,---,0.00,0.00,VWS V14.01,2013-08-02 08:00:00,
2013-08-02 04:05:00,64.3,63.7,29.84,SW,229,0.0,0.0,98,0.00,,---,0.00,0.00,VWS V14.01,2013-08-02 08:05:00,
2013-08-02 04:10:00,64.2,63.6,29.84,SW,229,0.0,0.0,98,0.00,,---,0.00,0.00,VWS V14.01,2013-08-02 08:10:00,
2013-08-02 04:15:00,64.1,63.5,29.83,SW,229,0.0,0.0,98,0.00,,---,0.00,0.00,VWS V14.01,2013-08-02 08:15:00,
2013-08-02 04:20:00,64.1,63.5,29.84,SW,229,0.0,0.0,98,0.00,,---,0.00,0.00,VWS V14.01,2013-08-02 08:20:00,
2013-08-02 04:25:00,63.9,63.3,29.84,SW,229,0.0,0.0,98,0.00,,---,0.00,0.00,VWS V14.01,2013-08-02 08:25:00,
2013-08-02 04:30:00,63.8,63.2,29.84,SW,229,0.0,0.0,98,0.00,,---,0.00,0.00,VWS V14.01,2013-08-02 08:30:00,
2013-08-02 04:35:00,63.8,63.2,29.84,SW,229,0.0,0.0,98,0.00,,---,0.00,0.00,VWS V14.01,2013-08-02 08:35:00,
2013-08-02 04:40:00,63.8,63.2,29.84,SW,229,0.0,0.0,98,0.00,,---,0.00,0.00,VWS V14.01,2013-08-02 08:40:00,
2013-08-02 04:45:00,63.6,63.0,29.84,SW,229,0.0,0.0,98,0.00,,---,0.00,0.00,VWS V14.01,2013-08-02 08:45:00,
2013-08-02 04:50:00,63.5,62.9,29.84,SW,229,0.0,0.0,98,0.00,,---,0.00,0.00,VWS V14.01,2013-08-02 08:50:00,
2013-08-02 04:55:00,63.4,62.8,29.84,SW,229,0.0,0.0,98,0.00,,---,0.00,0.00,VWS V14.01,2013-08-02 08:55:00,
2013-08-02 05:00:00,63.2,62.6,29.84,SW,229,0.0,0.0,98,0.00,,---,0.00,0.00,VWS V14.01,2013-08-02 09:00:00,
2013-08-02 05:05:00,63.1,62.5,29.84,SW,229,0.0,0.0,98,0.00,,---,0.00,0.00,VWS V14.01,2013-08-02 09:05:00,
2013-08-02 05:10:00,63.0,62.4,29.84,SW,229,0.0,0.0,98,0.00,,---,0.00,0.00,VWS V14.01,2013-08-02 09:10:00,
2013-08-02 05:15:00,62.7,62.1,29.84,SW,229,0.0,0.0,98,0.00,,---,0.00,0.00,VWS V14.01,2013-08-02 09:15:00,
2013-08-02 05:20:00,62.5,61.9,29.85,SW,229,0.0,0.0,98,0.00,,---,0.00,0.00,VWS V14.01,2013-08-02 09:20:00,
2013-08-02 05:25:00,62.2,61.6,29.85,SW,229,0.0,0.0,98,0.00,,---,0.00,0.00,VWS V14.01,2013-08-02 09:25:00,
2013-08-02 05:30:00,62.0,61.4,29.86,SW,229,0.0,0.0,98,0.00,,---,0.00,0.00,VWS V14.01,2013-08-02 09:30:00,
2013-08-02 05:35:00,61.9,61.3,29.86,SW,229,0.0,0.0,98,0.00,,---,0.00,0.00,VWS V14.01,2013-08-02 09:35:00,
2013-08-02 05:40:00,61.8,61.2,29.86,SW,229,0.0,1.0,98,0.00,,---,0.00,0.00,VWS V14.01,2013-08-02 09:40:00,
2013-08-02 05:45:00,61.7,61.1,29.86,SW,229,0.0,1.0,98,0.00,,---,0.00,0.00,VWS V14.01,2013-08-02 09:45:00,
2013-08-02 05:50:00,61.6,61.0,29.87,SW,229,0.0,1.0,98,0.00,,---,0.00,0.00,VWS V14.01,2013-08-02 09:50:00,
2013-08-02 05:56:00,61.6,61.0,29.87,SW,229,0.0,1.0,98,0.00,,---,0.00,0.00,VWS V14.01,2013-08-02 09:56:00,
2013-08-02 06:00:00,63.2,62.6,29.84,SW,229,0.0,0.0,98,0.00,,---,0.00,0.00,VWS V14.01,2013-08-02 10:00:00,
2013-08-02 06:01:00,61.6,61.0,29.87,SW,229,0.0,0.0,98,0.00,,---,0.00,5.00,VWS V14.01,2013-08-02 10:01:00,
2013-08-02 06:06:00,61.5,60.9,29.87,SW,229,0.0,0.0,98,0.00,,---,0.00,7.00,VWS V14.01,2013-08-02 10:06:00,
2013-08-02 06:11:00,61.4,60.8,29.87,SW,229,0.0,0.0,98,0.00,,---,0.00,11.00,VWS V14.01,2013-08-02 10:11:00,
2013-08-02 06:16:00,61.4,60.8,29.88,SW,229,0.0,0.0,98,0.00,,---,0.00,12.00,VWS V14.01,2013-08-02 10:16:00,
2013-08-02 06:21:00,61.3,60.7,29.88,SW,229,0.0,0.0,98,0.00,,---,0.00,25.00,VWS V14.01,2013-08-02 10:21:00,
2013-08-02 06:26:00,61.3,60.7,29.88,SW,229,0.0,0.0,98,0.00,,---,0.00,28.00,VWS V14.01,2013-08-02 10:26:00,
2013-08-02 06:30:00,62.0,61.4,29.86,SW,229,0.0,1.0,98,0.00,,---,0.00,0.00,VWS V14.01,2013-08-02 10:30:00,
2013-08-02 06:31:00,61.3,60.7,29.88,SW,229,0.0,0.0,98,0.00,,---,0.00,44.00,VWS V14.01,2013-08-02 10:31:00,
2013-08-02 06:36:00,61.3,60.7,29.88,SW,229,0.0,0.0,98,0.00,,---,0.00,37.00,VWS V14.01,2013-08-02 10:36:00,
2013-08-02 06:41:00,61.3,60.7,29.88,SW,229,0.0,0.0,98,0.00,,---,0.00,40.00,VWS V14.01,2013-08-02 10:41:00,
2013-08-02 06:46:00,61.3,60.7,29.88,SW,229,0.0,0.0,98,0.00,,---,0.00,47.00,VWS V14.01,2013-08-02 10:46:00,
2013-08-02 06:51:00,61.4,60.8,29.88,SW,229,0.0,0.0,98,0.00,,---,0.00,44.00,VWS V14.01,2013-08-02 10:51:00,
2013-08-02 06:56:00,61.5,60.9,29.89,SW,229,0.0,0.0,98,0.00,,---,0.00,42.00,VWS V14.01,2013-08-02 10:56:00,
2013-08-02 07:00:00,61.5,60.9,29.87,SW,229,0.0,1.0,98,0.00,,---,0.00,0.00,VWS V14.01,2013-08-02 11:00:00,
2013-08-02 07:01:00,61.6,61.0,29.88,SW,229,0.0,0.0,98,0.00,,---,0.00,32.00,VWS V14.01,2013-08-02 11:01:00,
2013-08-02 07:06:00,61.6,61.0,29.89,SW,229,0.0,0.0,98,0.00,,---,0.00,42.00,VWS V14.01,2013-08-02 11:06:00,
2013-08-02 07:11:00,61.9,61.3,29.88,SW,229,0.0,0.0,98,0.00,,---,0.00,162.00,VWS V14.01,2013-08-02 11:11:00,
2013-08-02 07:16:00,62.0,61.4,29.88,SW,229,0.0,0.0,98,0.00,,---,0.00,162.00,VWS V14.01,2013-08-02 11:16:00,
2013-08-02 07:21:00,62.3,62.0,29.89,SW,229,0.0,0.0,99,0.00,,---,0.00,207.00,VWS V14.01,2013-08-02 11:21:00,
2013-08-02 07:26:00,62.7,62.1,29.89,SW,229,0.0,0.0,98,0.00,,---,0.00,125.00,VWS V14.01,2013-08-02 11:26:00,
2013-08-02 07:30:00,61.3,60.7,29.87,SW,229,0.0,0.0,98,0.00,,---,0.00,40.00,VWS V14.01,2013-08-02 11:30:00,
2013-08-02 07:31:00,62.8,62.2,29.89,SW,229,0.0,0.0,98,0.00,,---,0.00,79.00,VWS V14.01,2013-08-02 11:31:00,
2013-08-02 07:35:00,62.8,62.5,29.89,SW,229,0.0,0.0,99,0.00,,---,0.00,105.00,VWS V14.01,2013-08-02 11:35:00,
2013-08-02 07:41:00,62.8,62.2,29.89,SW,229,0.0,0.0,98,0.00,,---,0.00,121.00,VWS V14.01,2013-08-02 11:41:00,
2013-08-02 07:46:00,63.0,62.4,29.89,SW,229,0.0,0.0,98,0.00,,---,0.00,155.00,VWS V14.01,2013-08-02 11:46:00,
2013-08-02 07:50:00,63.3,62.7,29.89,SW,229,0.0,0.0,98,0.00,,---,0.00,163.00,VWS V14.01,2013-08-02 11:50:00,
2013-08-02 07:55:00,63.4,62.8,29.89,SW,229,0.0,0.0,98,0.00,,---,0.00,134.00,VWS V14.01,2013-08-02 11:55:00,
2013-08-02 08:00:00,61.5,60.9,29.88,SW,229,0.0,0.0,98,0.00,,---,0.00,37.00,VWS V14.01,2013-08-02 12:00:00,
2013-08-02 08:01:00,63.6,63.3,29.89,SW,229,0.0,0.0,99,0.00,,---,0.00,139.00,VWS V14.01,2013-08-02 12:01:00,
2013-08-02 08:06:00,63.9,63.3,29.89,SW,229,0.0,0.0,98,0.00,,---,0.00,137.00,VWS V14.01,2013-08-02 12:06:00,
2013-08-02 08:11:00,64.0,63.4,29.89,SW,229,0.0,0.0,98,0.00,,---,0.00,142.00,VWS V14.01,2013-08-02 12:11:00,
2013-08-02 08:16:00,64.2,63.9,29.90,SW,229,0.0,0.0,99,0.00,,---,0.00,141.00,VWS V14.01,2013-08-02 12:16:00,
2013-08-02 08:21:00,64.0,63.4,29.90,SW,229,0.0,1.0,98,0.00,,---,0.00,144.00,VWS V14.01,2013-08-02 12:21:00,
2013-08-02 08:26:00,64.1,63.8,29.90,SW,229,0.0,1.0,99,0.00,,---,0.00,163.00,VWS V14.01,2013-08-02 12:26:00,
2013-08-02 08:30:00,62.8,62.2,29.89,SW,229,0.0,0.0,98,0.00,,---,0.00,76.00,VWS V14.01,2013-08-02 12:30:00,
2013-08-02 08:31:00,64.5,63.9,29.90,SW,229,0.0,0.0,98,0.00,,---,0.00,279.00,VWS V14.01,2013-08-02 12:31:00,
2013-08-02 08:36:00,64.9,64.6,29.90,SW,229,0.0,0.0,99,0.00,,---,0.00,445.00,VWS V14.01,2013-08-02 12:36:00,
2013-08-02 08:41:00,65.1,64.8,29.90,SW,229,0.0,0.0,99,0.00,,---,0.00,225.00,VWS V14.01,2013-08-02 12:41:00,
2013-08-02 08:46:00,65.4,65.1,29.90,SW,229,0.0,0.0,99,0.00,,---,0.00,401.00,VWS V14.01,2013-08-02 12:46:00,
2013-08-02 08:51:00,65.5,65.2,29.90,SW,229,0.0,0.0,99,0.00,,---,0.00,529.00,VWS V14.01,2013-08-02 12:51:00,
2013-08-02 08:56:00,66.0,65.7,29.90,SW,229,0.0,0.0,99,0.00,,---,0.00,584.00,VWS V14.01,2013-08-02 12:56:00,
2013-08-02 09:00:00,63.5,63.2,29.89,SW,229,0.0,0.0,99,0.00,,---,0.00,149.00,VWS V14.01,2013-08-02 13:00:00,
2013-08-02 09:01:00,66.3,66.0,29.90,SW,229,0.0,0.0,99,0.00,,---,0.00,211.00,VWS V14.01,2013-08-02 13:01:00,
2013-08-02 09:06:00,66.1,65.5,29.90,SW,229,0.0,0.0,98,0.00,,---,0.00,176.00,VWS V14.01,2013-08-02 13:06:00,
2013-08-02 09:11:00,66.0,65.4,29.90,SW,229,0.0,0.0,98,0.00,,---,0.00,185.00,VWS V14.01,2013-08-02 13:11:00,
2013-08-02 09:15:00,66.0,65.4,29.90,SW,229,0.0,0.0,98,0.00,,---,0.00,142.00,VWS V14.01,2013-08-02 13:15:00,
2013-08-02 09:21:00,66.2,65.6,29.90,WSW,244,0.0,0.0,98,0.00,,---,0.00,169.00,VWS V14.01,2013-08-02 13:21:00,
2013-08-02 09:26:00,66.6,66.0,29.90,WSW,244,0.0,0.0,98,0.00,,---,0.00,311.00,VWS V14.01,2013-08-02 13:26:00,
2013-08-02 09:30:00,64.3,64.0,29.90,SW,229,0.0,1.0,99,0.00,,---,0.00,279.00,VWS V14.01,2013-08-02 13:30:00,
2013-08-02 09:31:00,67.0,66.4,29.90,SE,132,0.0,0.0,98,0.00,,---,0.00,178.00,VWS V14.01,2013-08-02 13:31:00,
2013-08-02 09:36:00,67.0,66.1,29.90,SE,132,0.0,1.0,97,0.00,,---,0.00,158.00,VWS V14.01,2013-08-02 13:36:00,
2013-08-02 09:41:00,67.0,66.1,29.90,SE,132,0.0,1.0,97,0.00,,---,0.00,299.00,VWS V14.01,2013-08-02 13:41:00,
2013-08-02 09:46:00,67.9,67.0,29.90,SE,132,0.0,3.0,97,0.00,,---,0.00,689.00,VWS V14.01,2013-08-02 13:46:00,
2013-08-02 09:50:00,68.2,67.0,29.90,SE,132,0.0,3.0,96,0.00,,---,0.00,123.00,VWS V14.01,2013-08-02 13:50:00,
2013-08-02 09:56:00,67.9,65.8,29.90,WSW,256,0.0,3.0,93,0.00,,---,0.00,229.00,VWS V14.01,2013-08-02 13:56:00,
2013-08-02 10:00:00,66.2,65.9,29.90,SW,229,0.0,0.0,99,0.00,,---,0.00,255.00,VWS V14.01,2013-08-02 14:00:00,
2013-08-02 10:01:00,68.3,66.2,29.90,WSW,256,0.0,1.0,93,0.00,,---,0.00,153.00,VWS V14.01,2013-08-02 14:01:00,
2013-08-02 10:06:00,68.5,65.5,29.91,WNW,285,0.0,6.0,90,0.00,,---,0.00,826.00,VWS V14.01,2013-08-02 14:06:00,
2013-08-02 10:10:00,68.8,65.8,29.90,WNW,285,0.0,6.0,90,0.00,,---,0.00,185.00,VWS V14.01,2013-08-02 14:10:00,
2013-08-02 10:15:00,69.1,66.1,29.90,West,264,0.0,6.0,90,0.00,,---,0.00,209.00,VWS V14.01,2013-08-02 14:15:00,
2013-08-02 10:20:00,69.4,65.7,29.90,West,264,0.0,6.0,88,0.00,,---,0.00,786.00,VWS V14.01,2013-08-02 14:20:00,
2013-08-02 10:25:00,70.0,65.6,29.91,WSW,254,0.0,7.0,86,0.00,,---,0.00,749.00,VWS V14.01,2013-08-02 14:25:00,
2013-08-02 10:30:00,70.6,65.9,29.91,SW,223,0.0,0.0,85,0.00,,---,0.00,780.00,VWS V14.01,2013-08-02 14:30:00,
2013-08-02 10:35:00,71.2,65.8,29.91,West,269,0.0,8.0,83,0.00,,---,0.00,766.00,VWS V14.01,2013-08-02 14:35:00,
2013-08-02 10:36:00,71.2,65.8,29.91,West,269,0.0,8.0,83,0.00,,---,0.00,766.00,VWS V14.01,2013-08-02 14:36:00,
2013-08-02 10:40:00,71.6,65.8,29.91,WSW,244,0.0,8.0,82,0.00,,---,0.00,817.00,VWS V14.01,2013-08-02 14:40:00,
2013-08-02 10:45:00,71.5,65.7,29.91,West,267,2.0,8.0,82,0.00,,---,0.00,186.00,VWS V14.01,2013-08-02 14:45:00,
2013-08-02 10:50:00,71.6,66.5,29.91,WSW,248,0.0,8.0,84,0.00,,---,0.00,912.00,VWS V14.01,2013-08-02 14:50:00,
2013-08-02 10:55:00,71.9,66.1,29.91,East,81,0.0,8.0,82,0.00,,---,0.00,946.00,VWS V14.01,2013-08-02 14:55:00,
2013-08-02 11:00:00,72.4,65.5,29.91,WNW,298,2.0,2.0,79,0.00,,---,0.00,155.00,VWS V14.01,2013-08-02 15:00:00,
2013-08-02 11:05:00,72.4,66.2,29.91,West,281,0.0,4.0,81,0.00,,---,0.00,918.00,VWS V14.01,2013-08-02 15:05:00,
2013-08-02 11:10:00,72.9,66.7,29.91,West,281,0.0,5.0,81,0.00,,---,0.00,942.00,VWS V14.01,2013-08-02 15:10:00,
2013-08-02 11:15:00,73.3,66.4,29.91,WSW,256,0.0,6.0,79,0.00,,---,0.00,881.00,VWS V14.01,2013-08-02 15:15:00,
2013-08-02 11:20:00,73.9,67.0,29.91,West,271,2.0,6.0,79,0.00,,---,0.00,1014.00,VWS V14.01,2013-08-02 15:20:00,
2013-08-02 11:25:00,73.6,65.2,29.91,West,271,0.0,6.0,75,0.00,,---,0.00,223.00,VWS V14.01,2013-08-02 15:25:00,
2013-08-02 11:30:00,73.3,65.7,29.91,West,262,6.0,6.0,77,0.00,,---,0.00,243.00,VWS V14.01,2013-08-02 15:30:00,
2013-08-02 11:35:00,73.6,65.9,29.91,NW,313,0.0,6.0,77,0.00,,---,0.00,889.00,VWS V14.01,2013-08-02 15:35:00,
2013-08-02 11:40:00,73.9,64.7,29.91,ENE,74,0.0,6.0,73,0.00,,---,0.00,135.00,VWS V14.01,2013-08-02 15:40:00,
2013-08-02 11:45:00,74.4,66.0,29.91,WNW,286,4.0,7.0,75,0.00,,---,0.00,905.00,VWS V14.01,2013-08-02 15:45:00,
2013-08-02 11:50:00,75.1,66.2,29.91,NW,315,3.0,7.0,74,0.00,,---,0.00,949.00,VWS V14.01,2013-08-02 15:50:00,
2013-08-02 11:55:00,75.8,66.9,29.90,WNW,296,0.0,7.0,74,0.00,,---,0.00,981.00,VWS V14.01,2013-08-02 15:55:00,
2013-08-02 12:00:00,76.0,66.7,29.90,West,276,0.0,0.0,73,0.00,,---,0.00,923.00,VWS V14.01,2013-08-02 16:00:00,
2013-08-02 12:05:00,75.8,65.7,29.90,West,264,4.0,4.0,71,0.00,,---,0.00,1013.00,VWS V14.01,2013-08-02 16:05:00,
2013-08-02 12:10:00,75.6,64.7,29.90,WSW,244,4.0,6.0,69,0.00,,---,0.00,972.00,VWS V14.01,2013-08-02 16:10:00,
2013-08-02 12:15:00,75.9,66.2,29.90,West,270,0.0,6.0,72,0.00,,---,0.00,1002.00,VWS V14.01,2013-08-02 16:15:00,
2013-08-02 12:20:00,75.6,64.7,29.91,West,271,4.0,7.0,69,0.00,,---,0.00,290.00,VWS V14.01,2013-08-02 16:20:00,
2013-08-02 12:25:00,75.8,66.9,29.90,WNW,288,0.0,7.0,74,0.00,,---,0.00,1020.00,VWS V14.01,2013-08-02 16:25:00,
2013-08-02 12:30:00,76.4,65.5,29.90,East,79,0.0,0.0,69,0.00,,---,0.00,264.00,VWS V14.01,2013-08-02 16:30:00,
2013-08-02 12:31:00,76.4,65.5,29.90,East,79,0.0,0.0,69,0.00,,---,0.00,264.00,VWS V14.01,2013-08-02 16:31:00,
2013-08-02 12:36:00,76.2,66.1,29.90,West,269,0.0,2.0,71,0.00,,---,0.00,1055.00,VWS V14.01,2013-08-02 16:36:00,
2013-08-02 12:41:00,76.2,64.0,29.90,West,265,0.0,7.0,66,0.00,,---,0.00,178.00,VWS V14.01,2013-08-02 16:41:00,
2013-08-02 12:46:00,76.1,63.9,29.90,West,280,0.0,7.0,66,0.00,,---,0.00,1071.00,VWS V14.01,2013-08-02 16:46:00,
2013-08-02 12:51:00,76.8,64.6,29.90,NW,304,0.0,7.0,66,0.00,,---,0.00,1095.00,VWS V14.01,2013-08-02 16:51:00,
2013-08-02 12:56:00,77.1,64.0,29.89,West,266,0.0,7.0,64,0.00,,---,0.00,1095.00,VWS V14.01,2013-08-02 16:56:00,
2013-08-02 13:00:00,76.0,66.7,29.90,West,276,0.0,7.0,73,0.00,,---,0.00,919.00,VWS V14.01,2013-08-02 17:00:00,
2013-08-02 13:01:00,77.2,64.1,29.89,WNW,294,0.0,2.0,64,0.00,,---,0.00,954.00,VWS V14.01,2013-08-02 17:01:00,
2013-08-02 13:05:00,76.5,63.4,29.89,WNW,294,2.0,3.0,64,0.00,,---,0.00,241.00,VWS V14.01,2013-08-02 17:05:00,
2013-08-02 13:11:00,76.5,65.6,29.88,NW,317,0.0,3.0,69,0.00,,---,0.00,1118.00,VWS V14.01,2013-08-02 17:11:00,
2013-08-02 13:16:00,76.9,65.1,29.88,WNW,293,0.0,4.0,67,0.00,,---,0.00,512.00,VWS V14.01,2013-08-02 17:16:00,
2013-08-02 13:21:00,77.4,67.3,29.88,WNW,294,0.0,4.0,71,0.00,,---,0.00,1049.00,VWS V14.01,2013-08-02 17:21:00,
2013-08-02 13:25:00,78.2,66.8,29.88,WNW,296,0.0,4.0,68,0.00,,---,0.00,1005.00,VWS V14.01,2013-08-02 17:25:00,
2013-08-02 13:30:00,76.4,65.5,29.90,East,79,0.0,7.0,69,0.00,,---,0.00,260.00,VWS V14.01,2013-08-02 17:30:00,
2013-08-02 13:31:00,78.7,67.7,29.88,NW,318,0.0,0.0,69,0.00,,---,0.00,1060.00,VWS V14.01,2013-08-02 17:31:00,
2013-08-02 13:35:00,78.5,66.6,29.88,West,281,0.0,5.0,67,0.00,,---,0.00,223.00,VWS V14.01,2013-08-02 17:35:00,
2013-08-02 13:40:00,77.6,64.9,29.88,WNW,290,0.0,5.0,65,0.00,,---,0.00,227.00,VWS V14.01,2013-08-02 17:40:00,
2013-08-02 13:46:00,77.0,65.6,29.88,WNW,290,0.0,5.0,68,0.00,,---,0.00,172.00,VWS V14.01,2013-08-02 17:46:00,
2013-08-02 13:51:00,76.4,65.5,29.88,WNW,290,0.0,5.0,69,0.00,,---,0.00,204.00,VWS V14.01,2013-08-02 17:51:00,
2013-08-02 13:56:00,76.5,64.7,29.88,WNW,290,0.0,5.0,67,0.00,,---,0.00,947.00,VWS V14.01,2013-08-02 17:56:00,
2013-08-02 14:00:00,77.3,65.1,29.89,WNW,294,0.0,8.0,66,0.00,,---,0.00,954.00,VWS V14.01,2013-08-02 18:00:00,
2013-08-02 14:01:00,76.7,65.8,29.88,NW,306,0.0,0.0,69,0.00,,---,0.00,244.00,VWS V14.01,2013-08-02 18:01:00,
2013-08-02 14:06:00,76.9,65.5,29.88,West,261,2.0,3.0,68,0.00,,---,0.00,241.00,VWS V14.01,2013-08-02 18:06:00,
2013-08-02 14:11:00,77.2,65.4,29.88,WSW,254,0.0,5.0,67,0.00,,---,0.00,972.00,VWS V14.01,2013-08-02 18:11:00,
2013-08-02 14:16:00,77.8,65.5,29.88,SW,227,1.0,5.0,66,0.00,,---,0.00,207.00,VWS V14.01,2013-08-02 18:16:00,
2013-08-02 14:20:00,78.0,65.3,29.88,West,264,0.0,5.0,65,0.00,,---,0.00,181.00,VWS V14.01,2013-08-02 18:20:00,
2013-08-02 14:25:00,77.8,64.2,29.88,WSW,246,3.0,8.0,63,0.00,,---,0.00,584.00,VWS V14.01,2013-08-02 18:25:00,
2013-08-02 14:30:00,78.7,68.1,29.88,NW,318,0.0,4.0,70,0.00,,---,0.00,1060.00,VWS V14.01,2013-08-02 18:30:00,
2013-08-02 14:31:00,78.0,65.3,29.88,West,263,5.0,5.0,65,0.00,,---,0.00,970.00,VWS V14.01,2013-08-02 18:31:00,
2013-08-02 14:36:00,78.2,63.7,29.88,West,277,3.0,7.0,61,0.00,,---,0.00,232.00,VWS V14.01,2013-08-02 18:36:00,
2013-08-02 14:41:00,78.1,64.5,29.88,West,275,3.0,7.0,63,0.00,,---,0.00,281.00,VWS V14.01,2013-08-02 18:41:00,
2013-08-02 14:46:00,77.7,64.1,29.88,WSW,252,0.0,7.0,63,0.00,,---,0.00,214.00,VWS V14.01,2013-08-02 18:46:00,
2013-08-02 14:51:00,77.5,64.4,29.88,WSW,252,0.0,7.0,64,0.00,,---,0.00,237.00,VWS V14.01,2013-08-02 18:51:00,
2013-08-02 14:56:00,77.4,64.3,29.88,WNW,290,0.0,7.0,64,0.00,,---,0.00,237.00,VWS V14.01,2013-08-02 18:56:00,
2013-08-02 15:00:00,76.7,65.8,29.88,NW,306,0.0,5.0,69,0.00,,---,0.00,244.00,VWS V14.01,2013-08-02 19:00:00,
2013-08-02 15:01:00,77.8,64.7,29.89,NW,304,1.0,3.0,64,0.00,,---,0.00,891.00,VWS V14.01,2013-08-02 19:01:00,
2013-08-02 15:06:00,77.7,64.1,29.88,West,265,0.0,4.0,63,0.00,,---,0.00,186.00,VWS V14.01,2013-08-02 19:06:00,
2013-08-02 15:11:00,77.3,65.1,29.88,West,265,0.0,4.0,66,0.00,,---,0.00,172.00,VWS V14.01,2013-08-02 19:11:00,
2013-08-02 15:16:00,77.0,64.8,29.88,West,265,0.0,4.0,66,0.00,,---,0.00,163.00,VWS V14.01,2013-08-02 19:16:00,
2013-08-02 15:21:00,77.2,65.4,29.87,West,265,0.0,4.0,67,0.00,,---,0.00,889.00,VWS V14.01,2013-08-02 19:21:00,
2013-08-02 15:25:00,78.2,65.9,29.87,West,281,0.0,4.0,66,0.00,,---,0.00,889.00,VWS V14.01,2013-08-02 19:25:00,
2013-08-02 15:30:00,77.9,65.2,29.88,WNW,284,0.0,8.0,65,0.00,,---,0.00,970.00,VWS V14.01,2013-08-02 19:30:00,
2013-08-02 15:31:00,78.7,66.0,29.87,NW,305,7.0,7.0,65,0.00,,---,0.00,181.00,VWS V14.01,2013-08-02 19:31:00,
2013-08-02 15:36:00,78.6,65.4,29.87,WSW,254,0.0,8.0,64,0.00,,---,0.00,216.00,VWS V14.01,2013-08-02 19:36:00,
2013-08-02 15:40:00,78.1,65.4,29.87,WNW,282,0.0,8.0,65,0.00,,---,0.00,193.00,VWS V14.01,2013-08-02 19:40:00,
2013-08-02 15:45:00,77.7,64.6,29.87,WSW,255,0.0,8.0,64,0.00,,---,0.00,190.00,VWS V14.01,2013-08-02 19:45:00,
2013-08-02 15:51:00,77.7,66.3,29.87,WSW,255,1.0,8.0,68,0.00,,---,0.00,802.00,VWS V14.01,2013-08-02 19:51:00,
2013-08-02 15:55:00,78.6,64.0,29.86,NW,309,1.0,8.0,61,0.00,,---,0.00,712.00,VWS V14.01,2013-08-02 19:55:00,
2013-08-02 16:00:00,77.7,65.0,29.89,WNW,288,3.0,7.0,65,0.00,,---,0.00,891.00,VWS V14.01,2013-08-02 20:00:00,
2013-08-02 16:01:00,79.2,63.2,29.86,SSE,152,1.0,1.0,58,0.00,,---,0.00,693.00,VWS V14.01,2013-08-02 20:01:00,
2013-08-02 16:06:00,79.2,63.7,29.87,WSW,246,0.0,2.0,59,0.00,,---,0.00,687.00,VWS V14.01,2013-08-02 20:06:00,
2013-08-02 16:11:00,79.5,64.4,29.87,NE,56,0.0,2.0,60,0.00,,---,0.00,169.00,VWS V14.01,2013-08-02 20:11:00,
2013-08-02 16:15:00,79.2,63.7,29.87,WNW,283,0.0,5.0,59,0.00,,---,0.00,710.00,VWS V14.01,2013-08-02 20:15:00,
2013-08-02 16:21:00,79.0,63.0,29.87,WNW,283,1.0,5.0,58,0.00,,---,0.00,100.00,VWS V14.01,2013-08-02 20:21:00,
2013-08-02 16:25:00,78.0,63.9,29.86,West,265,0.0,5.0,62,0.00,,---,0.00,221.00,VWS V14.01,2013-08-02 20:25:00,
2013-08-02 16:30:00,78.1,64.0,29.86,West,265,0.0,1.0,62,0.00,,---,0.00,599.00,VWS V14.01,2013-08-02 20:30:00,
2013-08-02 16:36:00,78.6,63.1,29.86,West,265,0.0,1.0,59,0.00,,---,0.00,81.00,VWS V14.01,2013-08-02 20:36:00,
2013-08-02 16:41:00,78.2,62.7,29.86,WNW,287,0.0,3.0,59,0.00,,---,0.00,97.00,VWS V14.01,2013-08-02 20:41:00,
2013-08-02 16:46:00,77.9,63.8,29.86,WNW,287,0.0,3.0,62,0.00,,---,0.00,98.00,VWS V14.01,2013-08-02 20:46:00,
2013-08-02 16:50:00,77.7,63.7,29.86,WNW,292,0.0,4.0,62,0.00,,---,0.00,561.00,VWS V14.01,2013-08-02 20:50:00,
2013-08-02 16:55:00,77.5,63.5,29.86,WNW,292,0.0,4.0,62,0.00,,---,0.00,86.00,VWS V14.01,2013-08-02 20:55:00,
2013-08-02 17:00:00,77.5,62.1,29.86,WNW,297,0.0,0.0,59,0.00,,---,0.00,573.00,VWS V14.01,2013-08-02 21:00:00,
2013-08-02 17:05:00,78.2,63.7,29.85,WNW,297,2.0,4.0,61,0.00,,---,0.00,483.00,VWS V14.01,2013-08-02 21:05:00,
2013-08-02 17:10:00,78.7,61.7,29.86,WNW,295,0.0,4.0,56,0.00,,---,0.00,359.00,VWS V14.01,2013-08-02 21:10:00,
2013-08-02 17:15:00,78.9,61.9,29.85,NW,315,0.0,6.0,56,0.00,,---,0.00,381.00,VWS V14.01,2013-08-02 21:15:00,
2013-08-02 17:20:00,79.0,62.0,29.85,WNW,294,0.0,6.0,56,0.00,,---,0.00,410.00,VWS V14.01,2013-08-02 21:20:00,
2013-08-02 17:25:00,79.0,63.0,29.85,WNW,294,0.0,6.0,58,0.00,,---,0.00,439.00,VWS V14.01,2013-08-02 21:25:00,
2013-08-02 17:30:00,79.2,62.7,29.85,WNW,294,0.0,0.0,57,0.00,,---,0.00,396.00,VWS V14.01,2013-08-02 21:30:00,
2013-08-02 17:35:00,79.2,62.7,29.85,WNW,294,0.0,2.0,57,0.00,,---,0.00,360.00,VWS V14.01,2013-08-02 21:35:00,
2013-08-02 17:41:00,79.0,63.5,29.85,WNW,301,0.0,2.0,59,0.00,,---,0.00,276.00,VWS V14.01,2013-08-02 21:41:00,
2013-08-02 17:46:00,78.8,62.3,29.85,West,281,0.0,4.0,57,0.00,,---,0.00,345.00,VWS V14.01,2013-08-02 21:46:00,
2013-08-02 17:50:00,78.7,61.2,29.85,West,264,0.0,6.0,55,0.00,,---,0.00,329.00,VWS V14.01,2013-08-02 21:50:00,
2013-08-02 17:56:00,78.7,62.2,29.85,SW,234,2.0,6.0,57,0.00,,---,0.00,236.00,VWS V14.01,2013-08-02 21:56:00,
2013-08-02 18:00:00,78.3,62.3,29.85,West,278,0.0,0.0,58,0.00,,---,0.00,90.00,VWS V14.01,2013-08-02 22:00:00,
2013-08-02 18:05:00,77.9,62.4,29.85,West,278,0.0,3.0,59,0.00,,---,0.00,69.00,VWS V14.01,2013-08-02 22:05:00,
2013-08-02 18:10:00,77.6,62.6,29.85,West,273,0.0,3.0,60,0.00,,---,0.00,44.00,VWS V14.01,2013-08-02 22:10:00,
2013-08-02 18:15:00,77.3,62.8,29.85,West,273,0.0,3.0,61,0.00,,---,0.00,49.00,VWS V14.01,2013-08-02 22:15:00,
2013-08-02 18:20:00,77.1,63.5,29.86,West,273,0.0,3.0,63,0.00,,---,0.00,42.00,VWS V14.01,2013-08-02 22:20:00,
2013-08-02 18:25:00,76.7,62.2,29.86,West,273,0.0,3.0,61,0.00,,---,0.00,39.00,VWS V14.01,2013-08-02 22:25:00,
2013-08-02 18:30:00,76.5,63.0,29.86,West,273,0.0,0.0,63,0.00,,---,0.00,58.00,VWS V14.01,2013-08-02 22:30:00,
2013-08-02 18:35:00,76.3,62.8,29.86,West,273,0.0,0.0,63,0.00,,---,0.00,37.00,VWS V14.01,2013-08-02 22:35:00,
2013-08-02 18:40:00,76.0,63.0,29.86,West,273,0.0,1.0,64,0.00,,---,0.00,33.00,VWS V14.01,2013-08-02 22:40:00,
2013-08-02 18:45:00,75.7,62.7,29.86,WNW,296,0.0,2.0,64,0.00,,---,0.00,26.00,VWS V14.01,2013-08-02 22:45:00,
2013-08-02 18:50:00,75.4,62.4,29.86,WNW,296,0.0,2.0,64,0.00,,---,0.00,26.00,VWS V14.01,2013-08-02 22:50:00,
2013-08-02 18:55:00,75.1,62.5,29.86,WNW,296,0.0,2.0,65,0.00,,---,0.00,14.00,VWS V14.01,2013-08-02 22:55:00,
2013-08-02 19:00:00,74.9,62.3,29.86,WNW,296,0.0,0.0,65,0.00,,---,0.00,9.00,VWS V14.01,2013-08-02 23:00:00,
2013-08-02 19:05:00,74.8,62.3,29.86,North,5,0.0,1.0,65,0.00,,---,0.00,11.00,VWS V14.01,2013-08-02 23:05:00,
2013-08-02 19:10:00,74.7,62.2,29.86,North,5,0.0,1.0,65,0.00,,---,0.00,11.00,VWS V14.01,2013-08-02 23:10:00,
2013-08-02 19:15:00,74.7,63.5,29.87,North,5,0.0,1.0,68,0.00,,---,0.00,12.00,VWS V14.01,2013-08-02 23:15:00,
2013-08-02 19:20:00,74.4,63.6,29.88,North,5,2.0,2.0,69,0.00,,---,0.00,11.00,VWS V14.01,2013-08-02 23:20:00,
2013-08-02 19:25:00,73.7,63.3,29.88,WNW,284,2.0,8.0,70,0.00,,---,0.00,16.00,VWS V14.01,2013-08-02 23:25:00,
2013-08-02 19:30:00,73.0,63.5,29.88,WNW,292,0.0,0.0,72,0.00,,---,0.00,18.00,VWS V14.01,2013-08-02 23:30:00,
2013-08-02 19:35:00,72.2,63.5,29.88,WNW,300,2.0,6.0,74,0.00,,---,0.00,18.00,VWS V14.01,2013-08-02 23:35:00,
2013-08-02 19:40:00,71.3,63.3,29.88,West,271,2.0,6.0,76,0.00,,---,0.00,25.00,VWS V14.01,2013-08-02 23:40:00,
2013-08-02 19:45:00,70.5,62.6,29.89,WSW,245,0.0,6.0,76,0.00,,---,0.00,16.00,VWS V14.01,2013-08-02 23:45:00,
2013-08-02 19:50:00,69.7,62.2,29.88,WSW,245,0.0,6.0,77,0.00,,---,0.00,9.00,VWS V14.01,2013-08-02 23:50:00,
2013-08-02 19:55:00,68.8,61.7,29.89,West,267,0.0,6.0,78,0.00,,---,0.00,5.00,VWS V14.01,2013-08-02 23:55:00,
2013-08-02 20:00:00,68.3,61.9,29.89,West,267,0.0,0.0,80,0.00,,---,0.00,5.00,VWS V14.01,2013-08-03 00:00:00,
2013-08-02 20:05:00,67.9,61.9,29.89,West,267,0.0,1.0,81,0.00,,---,0.00,0.00,VWS V14.01,2013-08-03 00:05:00,
2013-08-02 20:10:00,67.4,61.7,29.89,West,267,0.0,1.0,82,0.00,,---,0.00,0.00,VWS V14.01,2013-08-03 00:10:00,
2013-08-02 20:15:00,67.0,61.7,29.89,ESE,116,1.0,2.0,83,0.00,,---,0.00,0.00,VWS V14.01,2013-08-03 00:15:00,
2013-08-02 20:20:00,66.6,61.6,29.89,ESE,116,0.0,2.0,84,0.00,,---,0.00,0.00,VWS V14.01,2013-08-03 00:20:00,
2013-08-02 20:25:00,66.3,61.7,29.89,ESE,116,0.0,2.0,85,0.00,,---,0.00,0.00,VWS V14.01,2013-08-03 00:25:00,
2013-08-02 20:30:00,66.1,61.5,29.90,ESE,116,0.0,0.0,85,0.00,,---,0.00,0.00,VWS V14.01,2013-08-03 00:30:00,
2013-08-02 20:35:00,66.1,62.1,29.90,ESE,116,0.0,0.0,87,0.00,,---,0.00,0.00,VWS V14.01,2013-08-03 00:35:00,
2013-08-02 20:40:00,65.9,61.9,29.90,ESE,116,0.0,0.0,87,0.00,,---,0.00,0.00,VWS V14.01,2013-08-03 00:40:00,
2013-08-02 20:45:00,65.8,62.2,29.90,ESE,116,0.0,0.0,88,0.00,,---,0.00,0.00,VWS V14.01,2013-08-03 00:45:00,
2013-08-02 20:50:00,65.7,62.0,29.91,ESE,116,0.0,0.0,88,0.01,,---,0.01,0.00,VWS V14.01,2013-08-03 00:50:00,
2013-08-02 20:55:00,65.7,62.4,29.91,ESE,116,0.0,0.0,89,0.01,,---,0.01,0.00,VWS V14.01,2013-08-03 00:55:00,
2013-08-02 21:00:00,65.6,62.3,29.91,ESE,116,0.0,0.0,89,0.01,,---,0.01,0.00,VWS V14.01,2013-08-03 01:00:00,
2013-08-02 21:05:00,65.4,62.4,29.91,ESE,116,0.0,0.0,90,0.01,,---,0.01,0.00,VWS V14.01,2013-08-03 01:05:00,
2013-08-02 21:10:00,65.3,62.3,29.91,ESE,116,0.0,0.0,90,0.01,,---,0.01,0.00,VWS V14.01,2013-08-03 01:10:00,
2013-08-02 21:15:00,65.1,62.1,29.91,ESE,116,0.0,0.0,90,0.01,,---,0.01,0.00,VWS V14.01,2013-08-03 01:15:00,
2013-08-02 21:20:00,65.0,62.3,29.91,ESE,116,0.0,0.0,91,0.01,,---,0.01,0.00,VWS V14.01,2013-08-03 01:20:00,
2013-08-02 21:25:00,64.9,62.2,29.91,ESE,116,0.0,0.0,91,0.01,,---,0.01,0.00,VWS V14.01,2013-08-03 01:25:00,
2013-08-02 21:30:00,64.9,62.2,29.91,ESE,116,0.0,0.0,91,0.01,,---,0.01,0.00,VWS V14.01,2013-08-03 01:30:00,
2013-08-02 21:35:00,64.8,62.4,29.92,ESE,116,0.0,0.0,92,0.01,,---,0.01,0.00,VWS V14.01,2013-08-03 01:35:00,
2013-08-02 21:40:00,64.7,62.3,29.92,ESE,116,0.0,0.0,92,0.01,,---,0.01,0.00,VWS V14.01,2013-08-03 01:40:00,
2013-08-02 21:45:00,64.6,62.2,29.91,ESE,116,0.0,0.0,92,0.01,,---,0.01,0.00,VWS V14.01,2013-08-03 01:45:00,
2013-08-02 21:50:00,64.5,62.1,29.91,ESE,116,0.0,0.0,92,0.01,,---,0.01,0.00,VWS V14.01,2013-08-03 01:50:00,
2013-08-02 21:55:00,64.5,62.1,29.91,ESE,116,0.0,0.0,92,0.01,,---,0.01,0.00,VWS V14.01,2013-08-03 01:55:00,
2013-08-02 22:00:00,64.4,62.0,29.91,ESE,116,0.0,0.0,92,0.00,,---,0.01,0.00,VWS V14.01,2013-08-03 02:00:00,
2013-08-02 22:05:00,64.3,61.9,29.91,ESE,116,0.0,0.0,92,0.00,,---,0.01,0.00,VWS V14.01,2013-08-03 02:05:00,
2013-08-02 22:10:00,64.2,61.8,29.91,ESE,116,0.0,0.0,92,0.00,,---,0.01,0.00,VWS V14.01,2013-08-03 02:10:00,
2013-08-02 22:15:00,64.0,61.6,29.91,ESE,116,0.0,0.0,92,0.00,,---,0.01,0.00,VWS V14.01,2013-08-03 02:15:00,
2013-08-02 22:20:00,63.8,61.1,29.91,ESE,116,0.0,0.0,91,0.00,,---,0.01,0.00,VWS V14.01,2013-08-03 02:20:00,
2013-08-02 22:25:00,63.7,61.3,29.91,ESE,116,0.0,0.0,92,0.00,,---,0.01,0.00,VWS V14.01,2013-08-03 02:25:00,
2013-08-02 22:30:00,63.6,61.2,29.91,ESE,116,0.0,0.0,92,0.00,,---,0.01,0.00,VWS V14.01,2013-08-03 02:30:00,
2013-08-02 22:35:00,63.4,60.7,29.91,ESE,116,0.0,0.0,91,0.00,,---,0.01,0.00,VWS V14.01,2013-08-03 02:35:00,
2013-08-02 22:40:00,63.3,60.9,29.91,ESE,116,0.0,0.0,92,0.00,,---,0.01,0.00,VWS V14.01,2013-08-03 02:40:00,
2013-08-02 22:45:00,63.2,60.8,29.92,ESE,116,0.0,0.0,92,0.00,,---,0.01,0.00,VWS V14.01,2013-08-03 02:45:00,
2013-08-02 22:50:00,63.1,61.0,29.92,ESE,116,0.0,0.0,93,0.00,,---,0.01,0.00,VWS V14.01,2013-08-03 02:50:00,
2013-08-02 22:56:00,63.1,61.0,29.91,ESE,116,0.0,0.0,93,0.00,,---,0.01,0.00,VWS V14.01,2013-08-03 02:56:00,
2013-08-02 23:00:00,63.1,61.0,29.91,ESE,116,0.0,0.0,93,0.00,,---,0.01,0.00,VWS V14.01,2013-08-03 03:00:00,
2013-08-02 23:05:00,63.1,61.3,29.91,ESE,116,0.0,0.0,94,0.00,,---,0.01,0.00,VWS V14.01,2013-08-03 03:05:00,
2013-08-02 23:10:00,63.1,61.3,29.91,ESE,116,0.0,0.0,94,0.00,,---,0.01,0.00,VWS V14.01,2013-08-03 03:10:00,
2013-08-02 23:15:00,63.1,61.3,29.91,ESE,116,0.0,0.0,94,0.00,,---,0.01,0.00,VWS V14.01,2013-08-03 03:15:00,
2013-08-02 23:21:00,63.0,61.2,29.91,ESE,116,0.0,0.0,94,0.00,,---,0.01,0.00,VWS V14.01,2013-08-03 03:21:00,
2013-08-02 23:25:00,62.9,61.2,29.91,ESE,116,0.0,0.0,94,0.00,,---,0.01,0.00,VWS V14.01,2013-08-03 03:25:00,
2013-08-02 23:30:00,62.7,61.0,29.91,ESE,116,0.0,0.0,94,0.00,,---,0.01,0.00,VWS V14.01,2013-08-03 03:30:00,
2013-08-02 23:35:00,62.6,60.8,29.91,ESE,116,0.0,0.0,94,0.00,,---,0.01,0.00,VWS V14.01,2013-08-03 03:35:00,
2013-08-02 23:40:00,62.5,60.8,29.91,ESE,116,0.0,0.0,94,0.00,,---,0.01,0.00,VWS V14.01,2013-08-03 03:40:00,
2013-08-02 23:45:00,62.4,61.0,29.91,ESE,116,0.0,0.0,95,0.00,,---,0.01,0.00,VWS V14.01,2013-08-03 03:45:00,
2013-08-02 23:50:00,62.3,60.8,29.91,ESE,116,0.0,0.0,95,0.00,,---,0.01,0.00,VWS V14.01,2013-08-03 03:50:00,
2013-08-02 23:55:00,62.3,60.8,29.91,ESE,116,0.0,0.0,95,0.00,,---,0.01,0.00,VWS V14.01,2013-08-03 03:55:00,